[[{"header":{"parameterUnit":"m.s-1","parameterCategory":1,"la1":30.2991,"la2":30.254,"lo1":-89.0895,"lo2":-89.0444,"dy":0.0017,"dx":0.0017,"nx":28,"ny":28,"refTime":"2025-07-03T21:00:00:Z","depth":0,"parameterNumber":2,"parameterNumberName":"U-component_of_WINDS"},"data":[0,0,0,0,0,0,0,0,0,0,0,0,0,0,0,0,0,0,0,0,0,0,0,0,0,0,0,0,0,0,0,0,0,0,0,0,0,0,0,0,0,0,0,0,0,0,0,0,0,0,0,0,0,0,0,0,0,0,2.132,2.132,0,2.1391,2.1392,2.1393,2.1363,2.1362,2.136,2.1358,2.1432,2.1435,2.1439,0,0,0,0,0,0,0,0,0,0,0,0,0,2.1158,2.1162,2.1319,2.132,2.1321,2.1391,2.1392,2.1393,2.1364,2.1362,2.136,2.1358,2.1431,2.1435,2.1439,0,0,0,0,0,0,0,0,0,0,0,0,0,2.1229,2.1163,2.1319,2.1315,2.1315,2.1391,2.1392,2.1393,2.1364,2.1362,2.1359,2.1357,2.1429,2.1434,2.144,2.1524,0,0,2.1456,2.1458,0,0,0,0,0,0,0,0,2.1225,2.1235,2.1315,2.1315,2.1316,2.1366,2.1362,2.1437,2.1365,2.1346,2.1358,2.1355,2.1412,2.1418,2.1438,2.1527,2.153,2.1456,2.146,2.1462,2.1463,0,0,0,0,0,0,0,2.122,2.1232,2.1348,2.1316,2.1317,2.131,2.1317,2.1376,2.1392,2.1347,2.1345,2.1354,2.1412,2.1432,2.1439,2.1531,2.1456,2.1461,2.1464,2.1466,2.1696,2.1699,0,0,0,0,0,0,2.1215,2.1228,2.1346,2.135,2.1263,2.1315,2.1323,2.1352,2.1391,2.1395,2.1356,2.1352,2.1425,2.1433,2.1442,2.1544,2.1462,2.1467,2.147,2.1693,2.1697,2.17,0,0,0,0,0,0,2.1212,2.1226,2.1343,2.1289,2.1303,2.1321,2.1354,2.1355,2.1376,2.1398,2.1401,2.1374,2.1423,2.1434,2.1504,2.1546,2.1469,2.1474,2.169,2.1694,2.1698,2.1748,0,0,0,0,0,0,2.1207,2.1225,2.1256,2.1289,2.1306,2.1404,2.1356,2.1358,2.1385,2.1381,2.1416,2.142,2.1422,2.1496,2.1509,2.1552,2.1478,2.1686,2.1692,2.1697,2.1742,2.1753,2.1763,0,0,0,0,0,2.1202,2.1267,2.1258,2.1273,2.1346,2.1406,2.1415,2.1417,2.1389,2.1421,2.1436,2.1418,2.1539,2.1504,2.1518,2.1563,2.1683,2.169,2.1696,2.1738,2.1751,2.1762,0,0,0,0,0,0,2.1238,2.1271,2.1262,2.134,2.137,2.1401,2.1441,2.143,2.1469,2.1464,2.1464,2.1472,2.1545,2.1561,2.152,2.1647,2.1607,2.1617,2.1634,2.1647,2.1656,2.1651,2.1483,0,0,0,0,0,2.1255,2.1301,2.1328,2.1394,2.141,2.1423,2.145,2.1448,2.148,2.1493,2.1512,2.1544,2.1589,2.1619,2.1662,2.1745,2.1753,2.1783,2.1793,2.1801,2.181,2.1857,2.1871,2.1721,2.1721,2.1721,0,0,2.129,2.1314,2.1343,2.1402,2.1425,2.1474,2.1434,2.1486,2.1522,2.15,2.1568,2.1584,2.1619,2.1697,2.1732,2.1713,2.1853,2.181,2.1816,2.182,2.1865,2.1879,2.1891,2.1726,2.1725,2.1724,0,0,2.138,2.1402,2.1461,2.1486,2.1522,2.1531,2.1545,2.1578,2.1588,2.1656,2.1642,2.1685,2.1762,2.1789,2.1812,2.1915,2.1901,2.1929,2.1981,2.2027,2.2039,2.2049,2.2086,2.21,2.1937,2.1937,2.1938,0,2.1419,2.1491,2.1492,2.1546,2.1573,2.1557,2.1616,2.164,2.1689,2.1708,2.1686,2.1785,2.1807,2.1891,2.1917,2.1936,2.1953,2.1924,2.2037,2.2047,2.2057,2.2093,2.2107,2.1941,2.194,2.194,2.194,0,2.1538,2.1588,2.1631,2.1679,2.1711,2.1768,2.1778,2.1811,2.1808,2.1819,2.189,2.1917,2.1965,2.1986,2.1982,2.207,2.2057,2.2036,2.1996,2.2075,2.2108,2.2122,2.1945,2.1944,2.1943,2.1942,0,0,2.1649,2.17,2.1715,2.1738,2.1779,2.1818,2.1875,2.1923,2.1951,2.1986,2.2034,2.2102,2.2083,2.211,2.211,2.2151,2.2232,2.2125,2.2126,2.2144,2.2331,2.2347,2.2362,2.2223,2.2226,2.2228,2.2329,0,2.1742,2.1841,2.1845,2.1936,2.1983,2.197,2.202,2.2051,2.2064,2.2106,2.2121,2.2169,2.2141,2.2157,2.2197,2.2213,2.2269,2.2206,2.2268,2.2271,2.2259,2.238,2.2396,2.2489,2.2342,2.2344,2.2345,0,2.1862,2.1902,2.1998,2.2034,2.2054,2.2098,2.2144,2.2185,2.222,2.2227,2.2259,2.2254,2.2313,2.2272,2.2354,2.2312,2.2338,2.235,2.2354,2.2359,2.2312,2.2388,2.2519,2.2533,2.2366,2.2364,2.2363,0,2.1934,2.2012,2.208,2.2099,2.2143,2.2175,2.2195,2.2228,2.2257,2.2298,2.2317,2.2364,2.2389,2.2426,2.2435,2.2404,2.2518,2.2477,2.2525,2.2525,2.2549,2.2547,2.2685,2.2567,2.2566,2.2566,2.2566,0,2.2036,2.2096,2.2113,2.2154,2.2221,2.2226,2.2292,2.231,2.234,2.2386,2.2377,2.242,2.2429,2.2474,2.2482,2.2549,2.2561,2.2569,2.257,2.2569,2.2568,2.2585,2.2579,2.257,2.2569,2.2568,2.2568,0,2.2127,2.2141,2.2214,2.2251,2.2261,2.2309,2.234,2.2381,2.2394,2.2452,2.2466,2.2487,2.254,2.2552,2.2615,2.262,2.2701,2.2696,2.2689,2.2688,2.2737,2.2732,2.289,2.2912,2.2779,2.278,2.2781,0,2.2191,2.2237,2.2279,2.2309,2.233,2.2379,2.2409,2.2417,2.245,2.2495,2.2531,2.2583,2.2625,2.2711,2.2732,2.2781,2.2777,2.2829,2.2784,2.2783,2.2778,2.2775,2.278,2.2837,2.2839,2.284,2.2841,0,2.2303,2.2309,2.2353,2.2401,2.2438,2.2476,2.2512,2.2538,2.2551,2.2588,2.2643,2.2675,2.2741,2.2793,2.2843,2.2864,2.2855,2.2855,2.2869,2.2868,2.2863,2.2867,2.2712,2.2851,2.285,2.2849,2.2849,2.2848,2.2383,2.2423,2.246,2.251,2.2539,2.2573,2.2614,2.2633,2.2679,2.2733,2.2735,2.2795,2.2832,2.2898,2.2922,2.2969,2.2953,2.2973,2.2978,2.2983,2.2988,2.2856,2.2979,2.2978,2.2978,2.2978,2.2978,0,2.2494,2.2518,2.2565,2.2616,2.2657,2.2646,2.2686,2.2721,2.2773,2.2809,2.2851,2.2915,2.2967,2.2993,2.3045,2.3078,2.3075,2.3091,2.3088,2.3094,2.2999,2.2982,2.3092,2.3092,2.3092,2.3092,2.3092,2.3092,2.2557,2.2626,2.2636,2.2719,2.2742,2.2801,2.2825,2.2858,2.2886,2.2958,2.3001,2.3018,2.3051,2.3105,2.3153,2.3159,2.3178,2.3197,2.3201,2.3112,2.31,2.3089,2.3073,2.3201,2.3201,2.3292,2.3293,2.3293]},{"header":{"parameterUnit":"m.s-1","parameterCategory":1,"la1":30.2991,"la2":30.254,"lo1":-89.0895,"lo2":-89.0444,"dy":0.0017,"dx":0.0017,"nx":28,"ny":28,"refTime":"2025-07-03T21:00:00:Z","depth":0,"parameterNumber":3,"parameterNumberName":"V-component_of_WINDS"},"data":[0,0,0,0,0,0,0,0,0,0,0,0,0,0,0,0,0,0,0,0,0,0,0,0,0,0,0,0,0,0,0,0,0,0,0,0,0,0,0,0,0,0,0,0,0,0,0,0,0,0,0,0,0,0,0,0,0,0,-1.1381,-1.1382,0,-1.147,-1.1471,-1.1472,-1.1514,-1.1514,-1.1513,-1.1513,-1.1606,-1.1608,-1.1611,0,0,0,0,0,0,0,0,0,0,0,0,0,-1.1248,-1.125,-1.1381,-1.1382,-1.1383,-1.147,-1.1471,-1.1472,-1.1514,-1.1514,-1.1513,-1.1513,-1.1605,-1.1608,-1.1611,0,0,0,0,0,0,0,0,0,0,0,0,0,-1.1318,-1.1251,-1.1381,-1.1414,-1.1418,-1.147,-1.1471,-1.1473,-1.1514,-1.1514,-1.1513,-1.1513,-1.1604,-1.1608,-1.1611,-1.1637,0,0,-1.1623,-1.1625,0,0,0,0,0,0,0,0,-1.1314,-1.1323,-1.1408,-1.1412,-1.1416,-1.1481,-1.1458,-1.1528,-1.1514,-1.1477,-1.1513,-1.1513,-1.1564,-1.1571,-1.1588,-1.1641,-1.1645,-1.1623,-1.1626,-1.1627,-1.1628,0,0,0,0,0,0,0,-1.1309,-1.1319,-1.1416,-1.1409,-1.1414,-1.1425,-1.1435,-1.1471,-1.152,-1.148,-1.1484,-1.1494,-1.1567,-1.1585,-1.1591,-1.1646,-1.1623,-1.1627,-1.1629,-1.163,-1.1725,-1.1726,0,0,0,0,0,0,-1.1299,-1.1315,-1.1413,-1.1419,-1.1364,-1.1428,-1.1439,-1.146,-1.152,-1.1529,-1.1494,-1.1495,-1.1578,-1.1586,-1.1594,-1.1628,-1.1627,-1.1631,-1.1633,-1.1725,-1.1725,-1.1726,0,0,0,0,0,0,-1.1296,-1.1307,-1.141,-1.1368,-1.1382,-1.143,-1.1454,-1.1462,-1.148,-1.153,-1.1539,-1.1503,-1.1578,-1.1589,-1.1626,-1.1632,-1.1632,-1.1636,-1.1725,-1.1725,-1.1726,-1.1696,0,0,0,0,0,0,-1.1292,-1.1306,-1.1315,-1.1368,-1.1384,-1.1439,-1.1454,-1.1464,-1.1486,-1.1489,-1.1541,-1.155,-1.1579,-1.162,-1.163,-1.1637,-1.1639,-1.1725,-1.1725,-1.1726,-1.1697,-1.1696,-1.1694,0,0,0,0,0,-1.1287,-1.1304,-1.1316,-1.1327,-1.1397,-1.144,-1.1449,-1.1482,-1.1486,-1.1497,-1.1529,-1.1548,-1.163,-1.1624,-1.1635,-1.1643,-1.1724,-1.1725,-1.1725,-1.1697,-1.1696,-1.1694,0,0,0,0,0,0,-1.1251,-1.1311,-1.1325,-1.1359,-1.1394,-1.1446,-1.1461,-1.1479,-1.1514,-1.1515,-1.1555,-1.1567,-1.16,-1.1626,-1.1618,-1.1672,-1.1679,-1.1682,-1.1654,-1.1653,-1.1651,-1.1645,-1.1642,0,0,0,0,0,-1.1247,-1.1276,-1.1327,-1.1353,-1.1369,-1.1412,-1.1432,-1.1454,-1.1492,-1.1507,-1.1542,-1.1578,-1.1613,-1.1634,-1.1668,-1.1701,-1.1713,-1.1713,-1.1711,-1.171,-1.1712,-1.1732,-1.1733,-1.1728,-1.1728,-1.1728,0,0,-1.1239,-1.1276,-1.1292,-1.1346,-1.1376,-1.1406,-1.1424,-1.1455,-1.1477,-1.1512,-1.1549,-1.1576,-1.1619,-1.1654,-1.1672,-1.1677,-1.1716,-1.1711,-1.1709,-1.1712,-1.1733,-1.1733,-1.1733,-1.1728,-1.1728,-1.1728,0,0,-1.124,-1.127,-1.1295,-1.1324,-1.1369,-1.1397,-1.1403,-1.1453,-1.1472,-1.151,-1.1537,-1.1565,-1.1622,-1.1652,-1.1675,-1.1688,-1.1707,-1.1698,-1.1692,-1.1711,-1.1711,-1.1712,-1.1717,-1.1718,-1.17,-1.17,-1.17,0,-1.1225,-1.127,-1.1305,-1.1335,-1.1358,-1.1391,-1.1416,-1.1443,-1.1497,-1.1512,-1.1517,-1.1591,-1.1622,-1.1665,-1.1668,-1.1685,-1.1694,-1.1692,-1.1708,-1.1709,-1.171,-1.1715,-1.1717,-1.1698,-1.1699,-1.1699,-1.1699,0,-1.1249,-1.1281,-1.1295,-1.1346,-1.1371,-1.1398,-1.1438,-1.146,-1.148,-1.1508,-1.1547,-1.1586,-1.1629,-1.1641,-1.1661,-1.1687,-1.1689,-1.17,-1.1708,-1.1709,-1.1714,-1.1716,-1.1697,-1.1697,-1.1697,-1.1698,0,0,-1.123,-1.13,-1.1304,-1.1328,-1.138,-1.1405,-1.1434,-1.1476,-1.1494,-1.153,-1.1556,-1.1604,-1.1615,-1.1641,-1.1665,-1.1682,-1.1691,-1.1692,-1.1693,-1.169,-1.1722,-1.1713,-1.1715,-1.1703,-1.1704,-1.1704,-1.1718,0,-1.1238,-1.1291,-1.1324,-1.1364,-1.1394,-1.1425,-1.1451,-1.1486,-1.1513,-1.1543,-1.1573,-1.1607,-1.1619,-1.1635,-1.1653,-1.1685,-1.1697,-1.1685,-1.1728,-1.1729,-1.1716,-1.1717,-1.1708,-1.1719,-1.1721,-1.1721,-1.1721,0,-1.1254,-1.1289,-1.1332,-1.1382,-1.1395,-1.1417,-1.1459,-1.1486,-1.1527,-1.1546,-1.1575,-1.1599,-1.1632,-1.1638,-1.1684,-1.1675,-1.1695,-1.1714,-1.1715,-1.172,-1.1725,-1.1723,-1.1724,-1.1725,-1.1725,-1.1725,-1.1725,0,-1.1236,-1.1294,-1.1327,-1.1347,-1.1405,-1.142,-1.1445,-1.1485,-1.1508,-1.1545,-1.156,-1.16,-1.1621,-1.1652,-1.1687,-1.1688,-1.173,-1.1738,-1.1747,-1.1746,-1.1754,-1.1753,-1.1758,-1.1767,-1.1767,-1.1767,-1.1767,0,-1.1242,-1.1267,-1.132,-1.134,-1.137,-1.1408,-1.1436,-1.1464,-1.15,-1.1527,-1.1557,-1.1581,-1.1626,-1.1657,-1.1685,-1.1719,-1.1729,-1.1745,-1.1752,-1.1742,-1.174,-1.1756,-1.1756,-1.1767,-1.1767,-1.1767,-1.1767,0,-1.1226,-1.1262,-1.1301,-1.1353,-1.1367,-1.1386,-1.1431,-1.1452,-1.1481,-1.1515,-1.1525,-1.1571,-1.1609,-1.1647,-1.1698,-1.1716,-1.175,-1.176,-1.1736,-1.174,-1.1747,-1.1746,-1.1762,-1.1766,-1.1771,-1.1771,-1.1771,0,-1.1227,-1.1247,-1.1301,-1.1321,-1.1345,-1.1377,-1.1401,-1.1439,-1.1463,-1.1511,-1.1527,-1.1567,-1.1601,-1.166,-1.1698,-1.1737,-1.1748,-1.1751,-1.1754,-1.1744,-1.1749,-1.1747,-1.1749,-1.175,-1.1749,-1.1749,-1.1749,0,-1.1225,-1.1243,-1.1275,-1.1315,-1.1342,-1.1375,-1.1409,-1.1424,-1.1469,-1.1495,-1.1533,-1.1559,-1.1612,-1.1651,-1.1695,-1.1722,-1.1743,-1.1748,-1.1752,-1.1742,-1.1728,-1.1736,-1.1733,-1.1747,-1.1747,-1.1748,-1.1748,-1.1748,-1.1219,-1.1238,-1.1279,-1.1315,-1.1345,-1.1376,-1.1399,-1.1431,-1.1463,-1.1508,-1.1529,-1.1568,-1.161,-1.1671,-1.1697,-1.1729,-1.1734,-1.174,-1.1742,-1.1743,-1.1741,-1.1723,-1.1737,-1.1737,-1.1737,-1.1737,-1.1737,0,-1.1219,-1.1247,-1.1279,-1.1326,-1.1354,-1.1372,-1.1411,-1.1433,-1.1467,-1.1503,-1.1536,-1.1581,-1.162,-1.1661,-1.1702,-1.172,-1.1731,-1.1729,-1.1728,-1.1734,-1.1733,-1.1725,-1.172,-1.172,-1.172,-1.172,-1.172,-1.172,-1.1222,-1.1256,-1.1278,-1.1327,-1.1356,-1.1394,-1.1415,-1.1444,-1.1473,-1.1522,-1.1554,-1.158,-1.1619,-1.1664,-1.17,-1.1712,-1.1725,-1.1721,-1.1735,-1.1733,-1.1734,-1.1736,-1.1729,-1.1724,-1.1724,-1.1734,-1.1734,-1.1734]}]]